date,time,water_lv
2012-11-01,00:00:00,99.96
2012-11-01,00:10:00,100
2012-11-01,00:20:00,100.04
2012-11-01,00:30:00,100.08
2012-11-01,00:40:00,100.13
2012-11-01,00:50:00,100.18
2012-11-01,01:00:00,100.22
2012-11-01,01:10:00,100.26
2012-11-01,01:20:00,100.29
2012-11-01,01:30:00,100.34
2012-11-01,01:40:00,100.39
2012-11-01,01:50:00,100.42
2012-11-01,02:00:00,100.44
2012-11-01,02:10:00,100.47
2012-11-01,02:20:00,100.49
2012-11-01,02:30:00,100.51
2012-11-01,02:40:00,100.54
2012-11-01,02:50:00,100.57
2012-11-01,03:00:00,100.59
2012-11-01,03:10:00,100.61
2012-11-01,03:20:00,100.64
2012-11-01,03:30:00,100.66
2012-11-01,03:40:00,100.68
2012-11-01,03:50:00,100.69
2012-11-01,04:00:00,100.7
2012-11-01,04:10:00,100.72
2012-11-01,04:20:00,100.74
2012-11-01,04:30:00,100.74
2012-11-01,04:40:00,100.76
2012-11-01,04:50:00,100.77
2012-11-01,05:00:00,100.78
2012-11-01,05:10:00,100.79
2012-11-01,05:20:00,100.8
2012-11-01,05:30:00,100.81
2012-11-01,05:40:00,100.82
2012-11-01,05:50:00,100.83
2012-11-01,06:00:00,100.84
2012-11-01,06:10:00,100.84
2012-11-01,06:20:00,100.85
2012-11-01,06:30:00,100.86
2012-11-01,06:40:00,100.86
2012-11-01,06:50:00,100.87
2012-11-01,07:00:00,100.87
2012-11-01,07:10:00,100.87
2012-11-01,07:20:00,100.89
2012-11-01,07:30:00,100.89
2012-11-01,07:40:00,100.9
2012-11-01,07:50:00,100.9
2012-11-01,08:00:00,100.9
2012-11-01,08:10:00,100.91
2012-11-01,08:20:00,100.91
2012-11-01,08:30:00,100.92
2012-11-01,08:40:00,100.92
2012-11-01,08:50:00,100.92
2012-11-01,09:00:00,100.92
2012-11-01,09:10:00,100.93
2012-11-01,09:20:00,100.93
2012-11-01,09:30:00,100.93
2012-11-01,09:40:00,100.93
2012-11-01,09:50:00,100.93
2012-11-01,10:00:00,100.94
2012-11-01,10:10:00,100.94
2012-11-01,10:20:00,100.93
2012-11-01,10:30:00,100.93
2012-11-01,10:40:00,100.93
2012-11-01,10:50:00,100.93
2012-11-01,11:00:00,100.93
2012-11-01,11:10:00,100.93
2012-11-01,11:20:00,100.92
2012-11-01,11:30:00,100.91
2012-11-01,11:40:00,100.92
2012-11-01,11:50:00,100.91
2012-11-01,12:00:00,100.91
2012-11-01,12:10:00,100.9
2012-11-01,12:20:00,100.89
2012-11-01,12:30:00,100.88
2012-11-01,12:40:00,100.87
2012-11-01,12:50:00,100.86
2012-11-01,13:00:00,100.85
2012-11-01,13:10:00,100.84
2012-11-01,13:20:00,100.83
2012-11-01,13:30:00,100.82
2012-11-01,13:40:00,100.81
2012-11-01,13:50:00,100.79
2012-11-01,14:00:00,100.78
2012-11-01,14:10:00,100.76
2012-11-01,14:20:00,100.74
2012-11-01,14:30:00,100.73
2012-11-01,14:40:00,100.71
2012-11-01,14:50:00,100.68
2012-11-01,15:00:00,100.67
2012-11-01,15:10:00,100.65
2012-11-01,15:20:00,100.64
2012-11-01,15:30:00,100.61
2012-11-01,15:40:00,100.59
2012-11-01,15:50:00,100.58
2012-11-01,16:00:00,100.56
2012-11-01,16:10:00,100.53
2012-11-01,16:20:00,100.52
2012-11-01,16:30:00,100.5
2012-11-01,16:40:00,100.48
2012-11-01,16:50:00,100.46
2012-11-01,17:00:00,100.44
2012-11-01,17:10:00,100.43
2012-11-01,17:20:00,100.4
2012-11-01,17:30:00,100.38
2012-11-01,17:40:00,100.37
2012-11-01,17:50:00,100.35
2012-11-01,18:00:00,100.33
2012-11-01,18:10:00,100.32
2012-11-01,18:20:00,100.31
2012-11-01,18:30:00,100.29
2012-11-01,18:40:00,100.27
2012-11-01,18:50:00,100.26
2012-11-01,19:00:00,100.24
2012-11-01,19:10:00,100.23
2012-11-01,19:20:00,100.21
2012-11-01,19:30:00,100.2
2012-11-01,19:40:00,100.17
2012-11-01,19:50:00,100.17
2012-11-01,20:00:00,100.16
2012-11-01,20:10:00,100.14
2012-11-01,20:20:00,100.13
2012-11-01,20:30:00,100.11
2012-11-01,20:40:00,100.1
2012-11-01,20:50:00,100.09
2012-11-01,21:00:00,100.08
2012-11-01,21:10:00,100.08
2012-11-01,21:20:00,100.07
2012-11-01,21:30:00,100.05
2012-11-01,21:40:00,100.04
2012-11-01,21:50:00,100.04
2012-11-01,22:00:00,100.03
2012-11-01,22:10:00,100.03
2012-11-01,22:20:00,100.04
2012-11-01,22:30:00,100.04
2012-11-01,22:40:00,100.05
2012-11-01,22:50:00,100.05
2012-11-01,23:00:00,100.06
2012-11-01,23:10:00,100.09
2012-11-01,23:20:00,100.11
2012-11-01,23:30:00,100.14
2012-11-01,23:40:00,100.17
2012-11-01,23:50:00,100.21
2012-11-02,00:00:00,100.24
2012-11-02,00:10:00,100.27
2012-11-02,00:20:00,100.31
2012-11-02,00:30:00,100.34
2012-11-02,00:40:00,100.38
2012-11-02,00:50:00,100.41
2012-11-02,01:00:00,100.45
2012-11-02,01:10:00,100.48
2012-11-02,01:20:00,100.51
2012-11-02,01:30:00,100.54
2012-11-02,01:40:00,100.57
2012-11-02,01:50:00,100.59
2012-11-02,02:00:00,100.61
2012-11-02,02:10:00,100.63
2012-11-02,02:20:00,100.66
2012-11-02,02:30:00,100.68
2012-11-02,02:40:00,100.7
2012-11-02,02:50:00,100.71
2012-11-02,03:00:00,100.73
2012-11-02,03:10:00,100.74
2012-11-02,03:20:00,100.77
2012-11-02,03:30:00,100.77
2012-11-02,03:40:00,100.79
2012-11-02,03:50:00,100.8
2012-11-02,04:00:00,100.81
2012-11-02,04:10:00,100.82
2012-11-02,04:20:00,100.83
2012-11-02,04:30:00,100.84
2012-11-02,04:40:00,100.85
2012-11-02,04:50:00,100.86
2012-11-02,05:00:00,100.86
2012-11-02,05:10:00,100.87
2012-11-02,05:20:00,100.87
2012-11-02,05:30:00,100.88
2012-11-02,05:40:00,100.88
2012-11-02,05:50:00,100.89
2012-11-02,06:00:00,100.89
2012-11-02,06:10:00,100.9
2012-11-02,06:20:00,100.9
2012-11-02,06:30:00,100.9
2012-11-02,06:40:00,100.91
2012-11-02,06:50:00,100.91
2012-11-02,07:00:00,100.9
2012-11-02,07:10:00,100.91
2012-11-02,07:20:00,100.91
2012-11-02,07:30:00,100.91
2012-11-02,07:40:00,100.91
2012-11-02,07:50:00,100.91
2012-11-02,08:00:00,100.91
2012-11-02,08:10:00,100.9
2012-11-02,08:20:00,100.91
2012-11-02,08:30:00,100.9
2012-11-02,08:40:00,100.9
2012-11-02,08:50:00,100.9
2012-11-02,09:00:00,100.9
2012-11-02,09:10:00,100.89
2012-11-02,09:20:00,100.89
2012-11-02,09:30:00,100.89
2012-11-02,09:40:00,100.88
2012-11-02,09:50:00,100.88
2012-11-02,10:00:00,100.87
2012-11-02,10:10:00,100.86
2012-11-02,10:20:00,100.86
2012-11-02,10:30:00,100.85
2012-11-02,10:40:00,100.85
2012-11-02,10:50:00,100.84
2012-11-02,11:00:00,100.84
2012-11-02,11:10:00,100.83
2012-11-02,11:20:00,100.82
2012-11-02,11:30:00,100.81
2012-11-02,11:40:00,100.8
2012-11-02,11:50:00,100.79
2012-11-02,12:00:00,100.78
2012-11-02,12:10:00,100.77
2012-11-02,12:20:00,100.76
2012-11-02,12:30:00,100.75
2012-11-02,12:40:00,100.73
2012-11-02,12:50:00,100.72
2012-11-02,13:00:00,100.71
2012-11-02,13:10:00,100.7
2012-11-02,13:20:00,100.68
2012-11-02,13:30:00,100.67
2012-11-02,13:40:00,100.65
2012-11-02,13:50:00,100.64
2012-11-02,14:00:00,100.62
2012-11-02,14:10:00,100.6
2012-11-02,14:20:00,100.59
2012-11-02,14:30:00,100.57
2012-11-02,14:40:00,100.56
2012-11-02,14:50:00,100.55
2012-11-02,15:00:00,100.52
2012-11-02,15:10:00,100.51
2012-11-02,15:20:00,100.49
2012-11-02,15:30:00,100.48
2012-11-02,15:40:00,100.46
2012-11-02,15:50:00,100.45
2012-11-02,16:00:00,100.43
2012-11-02,16:10:00,100.41
2012-11-02,16:20:00,100.39
2012-11-02,16:30:00,100.38
2012-11-02,16:40:00,100.36
2012-11-02,16:50:00,100.34
2012-11-02,17:00:00,100.32
2012-11-02,17:10:00,100.31
2012-11-02,17:20:00,100.29
2012-11-02,17:30:00,100.28
2012-11-02,17:40:00,100.26
2012-11-02,17:50:00,100.25
2012-11-02,18:00:00,100.24
2012-11-02,18:10:00,100.23
2012-11-02,18:20:00,100.21
2012-11-02,18:30:00,100.2
2012-11-02,18:40:00,100.18
2012-11-02,18:50:00,100.17
2012-11-02,19:00:00,100.16
2012-11-02,19:10:00,100.14
2012-11-02,19:20:00,100.14
2012-11-02,19:30:00,100.13
2012-11-02,19:40:00,100.12
2012-11-02,19:50:00,100.11
2012-11-02,20:00:00,100.1
2012-11-02,20:10:00,100.09
2012-11-02,20:20:00,100.08
2012-11-02,20:30:00,100.07
2012-11-02,20:40:00,100.08
2012-11-02,20:50:00,100.08
2012-11-02,21:00:00,100.08
2012-11-02,21:10:00,100.08
2012-11-02,21:20:00,100.09
2012-11-02,21:30:00,100.1
2012-11-02,21:40:00,100.11
2012-11-02,21:50:00,100.13
2012-11-02,22:00:00,100.14
2012-11-02,22:10:00,100.17
2012-11-02,22:20:00,100.2
2012-11-02,22:30:00,100.23
2012-11-02,22:40:00,100.25
2012-11-02,22:50:00,100.29
2012-11-02,23:00:00,100.33
2012-11-02,23:10:00,100.36
2012-11-02,23:20:00,100.4
2012-11-02,23:30:00,100.43
2012-11-02,23:40:00,100.47
2012-11-02,23:50:00,100.5
2012-11-03,00:00:00,100.53
2012-11-03,00:10:00,100.56
2012-11-03,00:20:00,100.58
2012-11-03,00:30:00,100.6
2012-11-03,00:40:00,100.63
2012-11-03,00:50:00,100.66
2012-11-03,01:00:00,100.68
2012-11-03,01:10:00,100.7
2012-11-03,01:20:00,100.71
2012-11-03,01:30:00,100.73
2012-11-03,01:40:00,100.75
2012-11-03,01:50:00,100.76
2012-11-03,02:00:00,100.78
2012-11-03,02:10:00,100.79
2012-11-03,02:20:00,100.81
2012-11-03,02:30:00,100.81
2012-11-03,02:40:00,100.83
2012-11-03,02:50:00,100.84
2012-11-03,03:00:00,100.85
2012-11-03,03:10:00,100.86
2012-11-03,03:20:00,100.87
2012-11-03,03:30:00,100.88
2012-11-03,03:40:00,100.88
2012-11-03,03:50:00,100.89
2012-11-03,04:00:00,100.9
2012-11-03,04:10:00,100.91
2012-11-03,04:20:00,100.91
2012-11-03,04:30:00,100.92
2012-11-03,04:40:00,100.92
2012-11-03,04:50:00,100.93
2012-11-03,05:00:00,100.94
2012-11-03,05:10:00,100.94
2012-11-03,05:20:00,100.94
2012-11-03,05:30:00,100.95
2012-11-03,05:40:00,100.95
2012-11-03,05:50:00,100.95
2012-11-03,06:00:00,100.96
2012-11-03,06:10:00,100.96
2012-11-03,06:20:00,100.96
2012-11-03,06:30:00,100.96
2012-11-03,06:40:00,100.97
2012-11-03,06:50:00,100.97
2012-11-03,07:00:00,100.96
2012-11-03,07:10:00,100.96
2012-11-03,07:20:00,100.97
2012-11-03,07:30:00,100.97
2012-11-03,07:40:00,100.97
2012-11-03,07:50:00,100.96
2012-11-03,08:00:00,100.96
2012-11-03,08:10:00,100.97
2012-11-03,08:20:00,100.96
2012-11-03,08:30:00,100.96
2012-11-03,08:40:00,100.96
2012-11-03,08:50:00,100.95
2012-11-03,09:00:00,100.95
2012-11-03,09:10:00,100.95
2012-11-03,09:20:00,100.94
2012-11-03,09:30:00,100.94
2012-11-03,09:40:00,100.93
2012-11-03,09:50:00,100.92
2012-11-03,10:00:00,100.92
2012-11-03,10:10:00,100.91
2012-11-03,10:20:00,100.9
2012-11-03,10:30:00,100.89
2012-11-03,10:40:00,100.88
2012-11-03,10:50:00,100.87
2012-11-03,11:00:00,100.86
2012-11-03,11:10:00,100.85
2012-11-03,11:20:00,100.84
2012-11-03,11:30:00,100.82
2012-11-03,11:40:00,100.81
2012-11-03,11:50:00,100.8
2012-11-03,12:00:00,100.78
2012-11-03,12:10:00,100.77
2012-11-03,12:20:00,100.75
2012-11-03,12:30:00,100.73
2012-11-03,12:40:00,100.72
2012-11-03,12:50:00,100.7
2012-11-03,13:00:00,100.69
2012-11-03,13:10:00,100.67
2012-11-03,13:20:00,100.65
2012-11-03,13:30:00,100.63
2012-11-03,13:40:00,100.61
2012-11-03,13:50:00,100.59
2012-11-03,14:00:00,100.57
2012-11-03,14:10:00,100.55
2012-11-03,14:20:00,100.54
2012-11-03,14:30:00,100.52
2012-11-03,14:40:00,100.5
2012-11-03,14:50:00,100.48
2012-11-03,15:00:00,100.46
2012-11-03,15:10:00,100.45
2012-11-03,15:20:00,100.43
2012-11-03,15:30:00,100.41
2012-11-03,15:40:00,100.39
2012-11-03,15:50:00,100.37
2012-11-03,16:00:00,100.35
2012-11-03,16:10:00,100.34
2012-11-03,16:20:00,100.32
2012-11-03,16:30:00,100.31
2012-11-03,16:40:00,100.29
2012-11-03,16:50:00,100.28
2012-11-03,17:00:00,100.26
2012-11-03,17:10:00,100.24
2012-11-03,17:20:00,100.23
2012-11-03,17:30:00,100.22
2012-11-03,17:40:00,100.2
2012-11-03,17:50:00,100.19
2012-11-03,18:00:00,100.18
2012-11-03,18:10:00,100.16
2012-11-03,18:20:00,100.15
2012-11-03,18:30:00,100.13
2012-11-03,18:40:00,100.12
2012-11-03,18:50:00,100.1
2012-11-03,19:00:00,100.1
2012-11-03,19:10:00,100.08
2012-11-03,19:20:00,100.07
2012-11-03,19:30:00,100.05
2012-11-03,19:40:00,100.04
2012-11-03,19:50:00,100.03
2012-11-03,20:00:00,100.01
2012-11-03,20:10:00,100.01
2012-11-03,20:20:00,100
2012-11-03,20:30:00,99.99
2012-11-03,20:40:00,99.98
2012-11-03,20:50:00,99.98
2012-11-03,21:00:00,99.98
2012-11-03,21:10:00,99.97
2012-11-03,21:20:00,99.96
2012-11-03,21:30:00,99.95
2012-11-03,21:40:00,99.95
2012-11-03,21:50:00,99.94
2012-11-03,22:00:00,99.95
2012-11-03,22:10:00,99.95
2012-11-03,22:20:00,99.95
2012-11-03,22:30:00,99.95
2012-11-03,22:40:00,99.97
2012-11-03,22:50:00,99.99
2012-11-03,23:00:00,100.01
2012-11-03,23:10:00,100.04
2012-11-03,23:20:00,100.09
2012-11-03,23:30:00,100.13
2012-11-03,23:40:00,100.18
2012-11-03,23:50:00,100.22
2012-11-04,00:00:00,100.28
2012-11-04,00:10:00,100.33
2012-11-04,00:20:00,100.38
2012-11-04,00:30:00,100.42
2012-11-04,00:40:00,100.46
2012-11-04,00:50:00,100.51
2012-11-04,01:00:00,100.54
2012-11-04,01:10:00,100.58
2012-11-04,01:20:00,100.61
2012-11-04,01:30:00,100.64
2012-11-04,01:40:00,100.67
2012-11-04,01:50:00,100.69
2012-11-04,02:00:00,100.71
2012-11-04,02:10:00,100.73
2012-11-04,02:20:00,100.75
2012-11-04,02:30:00,100.77
2012-11-04,02:40:00,100.79
2012-11-04,02:50:00,100.81
2012-11-04,03:00:00,100.82
2012-11-04,03:10:00,100.83
2012-11-04,03:20:00,100.84
2012-11-04,03:30:00,100.86
2012-11-04,03:40:00,100.87
2012-11-04,03:50:00,100.88
2012-11-04,04:00:00,100.89
2012-11-04,04:10:00,100.9
2012-11-04,04:20:00,100.91
2012-11-04,04:30:00,100.92
2012-11-04,04:40:00,100.92
2012-11-04,04:50:00,100.94
2012-11-04,05:00:00,100.94
2012-11-04,05:10:00,100.95
2012-11-04,05:20:00,100.95
2012-11-04,05:30:00,100.96
2012-11-04,05:40:00,100.96
2012-11-04,05:50:00,100.97
2012-11-04,06:00:00,100.97
2012-11-04,06:10:00,100.98
2012-11-04,06:20:00,100.98
2012-11-04,06:30:00,100.98
2012-11-04,06:40:00,100.99
2012-11-04,06:50:00,101
2012-11-04,07:00:00,101
2012-11-04,07:10:00,101
2012-11-04,07:20:00,101
2012-11-04,07:30:00,101
2012-11-04,07:40:00,101
2012-11-04,07:50:00,101
2012-11-04,08:00:00,101
2012-11-04,08:10:00,101
2012-11-04,08:20:00,101
2012-11-04,08:30:00,100.99
2012-11-04,08:40:00,100.99
2012-11-04,08:50:00,100.99
2012-11-04,09:00:00,100.99
2012-11-04,09:10:00,100.98
2012-11-04,09:20:00,100.98
2012-11-04,09:30:00,100.97
2012-11-04,09:40:00,100.97
2012-11-04,09:50:00,100.96
2012-11-04,10:00:00,100.95
2012-11-04,10:10:00,100.94
2012-11-04,10:20:00,100.93
2012-11-04,10:30:00,100.92
2012-11-04,10:40:00,100.91
2012-11-04,10:50:00,100.9
2012-11-04,11:00:00,100.89
2012-11-04,11:10:00,100.87
2012-11-04,11:20:00,100.86
2012-11-04,11:30:00,100.85
2012-11-04,11:40:00,100.83
2012-11-04,11:50:00,100.81
2012-11-04,12:00:00,100.8
2012-11-04,12:10:00,100.78
2012-11-04,12:20:00,100.76
2012-11-04,12:30:00,100.74
2012-11-04,12:40:00,100.73
2012-11-04,12:50:00,100.7
2012-11-04,13:00:00,100.69
2012-11-04,13:10:00,100.67
2012-11-04,13:20:00,100.64
2012-11-04,13:30:00,100.62
2012-11-04,13:40:00,100.61
2012-11-04,13:50:00,100.59
2012-11-04,14:00:00,100.57
2012-11-04,14:10:00,100.55
2012-11-04,14:20:00,100.52
2012-11-04,14:30:00,100.51
2012-11-04,14:40:00,100.49
2012-11-04,14:50:00,100.47
2012-11-04,15:00:00,100.45
2012-11-04,15:10:00,100.43
2012-11-04,15:20:00,100.4
2012-11-04,15:30:00,100.38
2012-11-04,15:40:00,100.38
2012-11-04,15:50:00,100.35
2012-11-04,16:00:00,100.34
2012-11-04,16:10:00,100.31
2012-11-04,16:20:00,100.3
2012-11-04,16:30:00,100.28
2012-11-04,16:40:00,100.27
2012-11-04,16:50:00,100.25
2012-11-04,17:00:00,100.24
2012-11-04,17:10:00,100.22
2012-11-04,17:20:00,100.2
2012-11-04,17:30:00,100.18
2012-11-04,17:40:00,100.17
2012-11-04,17:50:00,100.16
2012-11-04,18:00:00,100.14
2012-11-04,18:10:00,100.13
2012-11-04,18:20:00,100.11
2012-11-04,18:30:00,100.1
2012-11-04,18:40:00,100.09
2012-11-04,18:50:00,100.08
2012-11-04,19:00:00,100.06
2012-11-04,19:10:00,100.05
2012-11-04,19:20:00,100.04
2012-11-04,19:30:00,100.02
2012-11-04,19:40:00,100.02
2012-11-04,19:50:00,100.01
2012-11-04,20:00:00,100
2012-11-04,20:10:00,99.98
2012-11-04,20:20:00,99.98
2012-11-04,20:30:00,99.97
2012-11-04,20:40:00,99.96
2012-11-04,20:50:00,99.95
2012-11-04,21:00:00,99.95
2012-11-04,21:10:00,99.95
2012-11-04,21:20:00,99.94
2012-11-04,21:30:00,99.93
2012-11-04,21:40:00,99.92
2012-11-04,21:50:00,99.92
2012-11-04,22:00:00,99.91
2012-11-04,22:10:00,99.9
2012-11-04,22:20:00,99.9
2012-11-04,22:30:00,99.9
2012-11-04,22:40:00,99.89
2012-11-04,22:50:00,99.89
2012-11-04,23:00:00,99.89
2012-11-04,23:10:00,99.88
2012-11-04,23:20:00,99.88
2012-11-04,23:30:00,99.87
2012-11-04,23:40:00,99.88
2012-11-04,23:50:00,99.87
2012-11-05,00:00:00,99.87
2012-11-05,00:10:00,99.87
2012-11-05,00:20:00,99.87
2012-11-05,00:30:00,99.88
2012-11-05,00:40:00,99.88
2012-11-05,00:50:00,99.88
2012-11-05,01:00:00,99.87
2012-11-05,01:10:00,99.87
2012-11-05,01:20:00,99.87
2012-11-05,01:30:00,99.87
2012-11-05,01:40:00,99.87
2012-11-05,01:50:00,99.87
2012-11-05,02:00:00,99.87
2012-11-05,02:10:00,99.87
2012-11-05,02:20:00,99.87
2012-11-05,02:30:00,99.87
2012-11-05,02:40:00,99.87
2012-11-05,02:50:00,99.87
2012-11-05,03:00:00,99.87
2012-11-05,03:10:00,99.87
2012-11-05,03:20:00,99.87
2012-11-05,03:30:00,99.87
2012-11-05,03:40:00,99.87
2012-11-05,03:50:00,99.87
2012-11-05,04:00:00,99.87
2012-11-05,04:10:00,99.87
2012-11-05,04:20:00,99.87
2012-11-05,04:30:00,99.87
2012-11-05,04:40:00,99.87
2012-11-05,04:50:00,99.87
2012-11-05,05:00:00,99.87
2012-11-05,05:10:00,99.87
2012-11-05,05:20:00,99.88
2012-11-05,05:30:00,99.88
2012-11-05,05:40:00,99.87
2012-11-05,05:50:00,99.87
2012-11-05,06:00:00,99.87
2012-11-05,06:10:00,99.87
2012-11-05,06:20:00,99.87
2012-11-05,06:30:00,99.87
2012-11-05,06:40:00,99.88
2012-11-05,06:50:00,99.88
2012-11-05,07:00:00,99.88
2012-11-05,07:10:00,99.88
2012-11-05,07:20:00,99.88
2012-11-05,07:30:00,99.88
2012-11-05,07:40:00,99.88
2012-11-05,07:50:00,99.88
2012-11-05,08:00:00,99.88
2012-11-05,08:10:00,99.88
2012-11-05,08:20:00,99.88
2012-11-05,08:30:00,99.89
2012-11-05,08:40:00,99.89
2012-11-05,08:50:00,99.89
2012-11-05,09:00:00,99.9
2012-11-05,09:10:00,99.91
2012-11-05,09:20:00,99.92
2012-11-05,09:30:00,99.93
2012-11-05,09:40:00,99.95
2012-11-05,09:50:00,99.97
2012-11-05,10:00:00,100
2012-11-05,10:10:00,100.02
2012-11-05,10:20:00,100.06
2012-11-05,10:30:00,100.09
2012-11-05,10:40:00,100.12
2012-11-05,10:50:00,100.15
2012-11-05,11:00:00,100.18
2012-11-05,11:10:00,100.2
2012-11-05,11:20:00,100.23
2012-11-05,11:30:00,100.26
2012-11-05,11:40:00,100.28
2012-11-05,11:50:00,100.29
2012-11-05,12:00:00,100.31
2012-11-05,12:10:00,100.33
2012-11-05,12:20:00,100.33
2012-11-05,12:30:00,100.34
2012-11-05,12:40:00,100.36
2012-11-05,12:50:00,100.36
2012-11-05,13:00:00,100.37
2012-11-05,13:10:00,100.37
2012-11-05,13:20:00,100.38
2012-11-05,13:30:00,100.37
2012-11-05,13:40:00,100.37
2012-11-05,13:50:00,100.38
2012-11-05,14:00:00,100.37
2012-11-05,14:10:00,100.36
2012-11-05,14:20:00,100.36
2012-11-05,14:30:00,100.36
2012-11-05,14:40:00,100.35
2012-11-05,14:50:00,100.35
2012-11-05,15:00:00,100.34
2012-11-05,15:10:00,100.34
2012-11-05,15:20:00,100.33
2012-11-05,15:30:00,100.31
2012-11-05,15:40:00,100.31
2012-11-05,15:50:00,100.3
2012-11-05,16:00:00,100.28
2012-11-05,16:10:00,100.27
2012-11-05,16:20:00,100.27
2012-11-05,16:30:00,100.25
2012-11-05,16:40:00,100.24
2012-11-05,16:50:00,100.24
2012-11-05,17:00:00,100.22
2012-11-05,17:10:00,100.21
2012-11-05,17:20:00,100.19
2012-11-05,17:30:00,100.18
2012-11-05,17:40:00,100.17
2012-11-05,17:50:00,100.16
2012-11-05,18:00:00,100.14
2012-11-05,18:10:00,100.13
2012-11-05,18:20:00,100.12
2012-11-05,18:30:00,100.11
2012-11-05,18:40:00,100.09
2012-11-05,18:50:00,100.08
2012-11-05,19:00:00,100.07
2012-11-05,19:10:00,100.05
2012-11-05,19:20:00,100.04
2012-11-05,19:30:00,100.03
2012-11-05,19:40:00,100.02
2012-11-05,19:50:00,100.01
2012-11-05,20:00:00,100
2012-11-05,20:10:00,99.99
2012-11-05,20:20:00,99.98
2012-11-05,20:30:00,99.96
2012-11-05,20:40:00,99.96
2012-11-05,20:50:00,99.95
2012-11-05,21:00:00,99.93
2012-11-05,21:10:00,99.93
2012-11-05,21:20:00,99.92
2012-11-05,21:30:00,99.91
2012-11-05,21:40:00,99.91
2012-11-05,21:50:00,99.9
2012-11-05,22:00:00,99.89
2012-11-05,22:10:00,99.89
2012-11-05,22:20:00,99.88
2012-11-05,22:30:00,99.88
2012-11-05,22:40:00,99.87
2012-11-05,22:50:00,99.87
2012-11-05,23:00:00,99.86
2012-11-05,23:10:00,99.85
2012-11-05,23:20:00,99.85
2012-11-05,23:30:00,99.84
2012-11-05,23:40:00,99.84
2012-11-05,23:50:00,99.84
2012-11-06,00:00:00,99.83
2012-11-06,00:10:00,99.83
2012-11-06,00:20:00,99.83
2012-11-06,00:30:00,99.82
2012-11-06,00:40:00,99.82
2012-11-06,00:50:00,99.82
2012-11-06,01:00:00,99.82
2012-11-06,01:10:00,99.83
2012-11-06,01:20:00,99.83
2012-11-06,01:30:00,99.83
2012-11-06,01:40:00,99.83
2012-11-06,01:50:00,99.84
2012-11-06,02:00:00,99.85
2012-11-06,02:10:00,99.86
2012-11-06,02:20:00,99.87
2012-11-06,02:30:00,99.88
2012-11-06,02:40:00,99.89
2012-11-06,02:50:00,99.9
2012-11-06,03:00:00,99.92
2012-11-06,03:10:00,99.93
2012-11-06,03:20:00,99.95
2012-11-06,03:30:00,99.97
2012-11-06,03:40:00,99.99
2012-11-06,03:50:00,100.02
2012-11-06,04:00:00,100.05
2012-11-06,04:10:00,100.07
2012-11-06,04:20:00,100.09
2012-11-06,04:30:00,100.12
2012-11-06,04:40:00,100.14
2012-11-06,04:50:00,100.17
2012-11-06,05:00:00,100.19
2012-11-06,05:10:00,100.21
2012-11-06,05:20:00,100.23
2012-11-06,05:30:00,100.25
2012-11-06,05:40:00,100.26
2012-11-06,05:50:00,100.29
2012-11-06,06:00:00,100.3
2012-11-06,06:10:00,100.31
2012-11-06,06:20:00,100.32
2012-11-06,06:30:00,100.33
2012-11-06,06:40:00,100.35
2012-11-06,06:50:00,100.36
2012-11-06,07:00:00,100.37
2012-11-06,07:10:00,100.37
2012-11-06,07:20:00,100.38
2012-11-06,07:30:00,100.39
2012-11-06,07:40:00,100.39
2012-11-06,07:50:00,100.4
2012-11-06,08:00:00,100.41
2012-11-06,08:10:00,100.41
2012-11-06,08:20:00,100.42
2012-11-06,08:30:00,100.42
2012-11-06,08:40:00,100.42
2012-11-06,08:50:00,100.43
2012-11-06,09:00:00,100.43
2012-11-06,09:10:00,100.44
2012-11-06,09:20:00,100.44
2012-11-06,09:30:00,100.44
2012-11-06,09:40:00,100.44
2012-11-06,09:50:00,100.44
2012-11-06,10:00:00,100.44
2012-11-06,10:10:00,100.44
2012-11-06,10:20:00,100.44
2012-11-06,10:30:00,100.44
2012-11-06,10:40:00,100.44
2012-11-06,10:50:00,100.44
2012-11-06,11:00:00,100.44
2012-11-06,11:10:00,100.43
2012-11-06,11:20:00,100.43
2012-11-06,11:30:00,100.43
2012-11-06,11:40:00,100.42
2012-11-06,11:50:00,100.42
2012-11-06,12:00:00,100.42
2012-11-06,12:10:00,100.42
2012-11-06,12:20:00,100.41
2012-11-06,12:30:00,100.4
2012-11-06,12:40:00,100.4
2012-11-06,12:50:00,100.39
2012-11-06,13:00:00,100.38
2012-11-06,13:10:00,100.37
2012-11-06,13:20:00,100.37
2012-11-06,13:30:00,100.36
2012-11-06,13:40:00,100.35
2012-11-06,13:50:00,100.34
2012-11-06,14:00:00,100.33
2012-11-06,14:10:00,100.32
2012-11-06,14:20:00,100.31
2012-11-06,14:30:00,100.3
2012-11-06,14:40:00,100.29
2012-11-06,14:50:00,100.28
2012-11-06,15:00:00,100.27
2012-11-06,15:10:00,100.26
2012-11-06,15:20:00,100.25
2012-11-06,15:30:00,100.23
2012-11-06,15:40:00,100.23
2012-11-06,15:50:00,100.22
2012-11-06,16:00:00,100.2
2012-11-06,16:10:00,100.19
2012-11-06,16:20:00,100.18
2012-11-06,16:30:00,100.16
2012-11-06,16:40:00,100.15
2012-11-06,16:50:00,100.14
2012-11-06,17:00:00,100.13
2012-11-06,17:10:00,100.12
2012-11-06,17:20:00,100.11
2012-11-06,17:30:00,100.1
2012-11-06,17:40:00,100.09
2012-11-06,17:50:00,100.07
2012-11-06,18:00:00,100.06
2012-11-06,18:10:00,100.06
2012-11-06,18:20:00,100.04
2012-11-06,18:30:00,100.03
2012-11-06,18:40:00,100.02
2012-11-06,18:50:00,100.01
2012-11-06,19:00:00,99.99
2012-11-06,19:10:00,99.98
2012-11-06,19:20:00,99.98
2012-11-06,19:30:00,99.96
2012-11-06,19:40:00,99.96
2012-11-06,19:50:00,99.94
2012-11-06,20:00:00,99.93
2012-11-06,20:10:00,99.93
2012-11-06,20:20:00,99.92
2012-11-06,20:30:00,99.92
2012-11-06,20:40:00,99.9
2012-11-06,20:50:00,99.91
2012-11-06,21:00:00,99.9
2012-11-06,21:10:00,99.89
2012-11-06,21:20:00,99.88
2012-11-06,21:30:00,99.88
2012-11-06,21:40:00,99.88
2012-11-06,21:50:00,99.87
2012-11-06,22:00:00,99.87
2012-11-06,22:10:00,99.87
2012-11-06,22:20:00,99.86
2012-11-06,22:30:00,99.86
2012-11-06,22:40:00,99.85
2012-11-06,22:50:00,99.84
2012-11-06,23:00:00,99.84
2012-11-06,23:10:00,99.84
2012-11-06,23:20:00,99.83
2012-11-06,23:30:00,99.83
2012-11-06,23:40:00,99.83
2012-11-06,23:50:00,99.83
2012-11-07,00:00:00,99.83
2012-11-07,00:10:00,99.83
2012-11-07,00:20:00,99.83
2012-11-07,00:30:00,99.84
2012-11-07,00:40:00,99.85
2012-11-07,00:50:00,99.86
2012-11-07,01:00:00,99.87
2012-11-07,01:10:00,99.88
2012-11-07,01:20:00,99.89
2012-11-07,01:30:00,99.9
2012-11-07,01:40:00,99.92
2012-11-07,01:50:00,99.93
2012-11-07,02:00:00,99.96
2012-11-07,02:10:00,99.99
2012-11-07,02:20:00,100.01
2012-11-07,02:30:00,100.05
2012-11-07,02:40:00,100.08
2012-11-07,02:50:00,100.11
2012-11-07,03:00:00,100.14
2012-11-07,03:10:00,100.18
2012-11-07,03:20:00,100.2
2012-11-07,03:30:00,100.23
2012-11-07,03:40:00,100.26
2012-11-07,03:50:00,100.28
2012-11-07,04:00:00,100.3
2012-11-07,04:10:00,100.32
2012-11-07,04:20:00,100.33
2012-11-07,04:30:00,100.35
2012-11-07,04:40:00,100.37
2012-11-07,04:50:00,100.38
2012-11-07,05:00:00,100.39
2012-11-07,05:10:00,100.4
2012-11-07,05:20:00,100.41
2012-11-07,05:30:00,100.42
2012-11-07,05:40:00,100.43